Regional Weather Roundup
Issued by NWS Grand Forks, ND

Home | Current Version | Previous Version | Text Only | Print | Product List | Glossary On
Versions: 1 2 3 4 5 6 7 8 9 10 11 12 13 14 15 16 17 18 19 20 21 22 23 24 25 26 27 28 29 30 31 32 33 34 35 36 37 38 39 40 41 42 43 44 45 46 47 48 49 50
000
ASUS43 KFGF 271710
RWRFGF
PRAIRIE TO PINES  WEATHER ROUNDUP
NATIONAL WEATHER SERVICE EASTERN NORTH DAKOTA/GRAND FORKS ND
1100 AM CST THU NOV 27 2014

 **SATELLITE DATA USED TO AUGMENT SKY COVER AT AUTOMATED STATIONS**
 *****  WEATHER ACROSS EASTERN NORTH DAKOTA  *****

CITY           SKY/WX    TMP DP  RH WIND       PRES   REMARKS
GRAND FORKS    MOSUNNY    1  -5  75 S12       30.46F WCI -16
GRAND FRKS AFB SUNNY      2  -6  68 S10       30.44F WCI -14
GRAND FRKS NWS   N/A      1 N/A N/A S13         N/A  WCI -16
DEVILS LAKE    SUNNY      1  -9  60 S12       30.30F WCI -15
FARGO          SUNNY      0  -6  76 S5        30.48F WCI -10
WAHPETON ARPT  SUNNY      0  -6  78 SE6       30.48F WCI -12
$$

 ***** WEATHER ACROSS CENTRAL AND WESTERN NORTH DAKOTA  *****

CITY           SKY/WX    TMP DP  RH WIND       PRES   REMARKS
BISMARCK       CLOUDY     5   1  83 SE9       30.27F WCI  -9
MINOT          PTSUNNY   10   4  76 SE10      30.18F WCI  -4
JAMESTOWN      MOSUNNY   -1  -9  68 S13       30.34F WCI -19
MINOT AFB      CLOUDY     6   4  90 SE8       30.19F WCI  -7
GARRISON         N/A     10   8  92 S12       30.19F WCI  -5
WILLISTON      CLOUDY    20  12  71 SE8       30.05F WCI  10
DICKINSON      CLOUDY    18  14  84 SE21G26   30.03F WCI   1
HETTINGER      CLOUDY    17  13  84 SE12      30.07F WCI   4
$$

 *****  OTHER AIRPORT OBSERVATIONS IN OUR AREA  *****

CITY           SKY/WX    TMP DP  RH WIND       PRES   REMARKS
WALHALLA         N/A      3   0  85 SW7       30.39F WCI  -9
GRAFTON AIRPOR FAIR       1  -4  78 S14       30.44F WCI -17
VALLEY CITY AR FAIR      -4  -8  84 S8        30.37F WCI -19
CANDO          FAIR       1  -2  85 S12       30.31F WCI -15
CAVALIER APRT  FAIR       1  -4  78 S9        30.41F WCI -14
GWINNER        SUNNY      1  -6  71 S8        30.43F WCI -12
ROLLA          FAIR       0  -2  92 S13       30.25R WCI -18
 ***** THE ABOVE OBSERVATIONS ARE NON NWS ARE NOT QUALITY
       CONTROLLED AND MAY MIS-REPORT RAIN FOR SNOW...
$$

  *****  WEATHER ACROSS NORTHERN MINNESOTA  *****

CITY           SKY/WX    TMP DP  RH WIND       PRES   REMARKS
FLAG ISLAND    SUNNY     -4  -9  77 CALM      30.41F
WARROAD        SUNNY     -4  -8  84 S7        30.42F WCI -18
ROSEAU         SUNNY     -2  -8  78 SW7       30.44S WCI -16
HALLOCK        SUNNY      1  -4  78 S14       30.44F WCI -17
THF RVR FALLS  SUNNY     -4  -6  92 SW8       30.44F WCI -19
BAUDETTE       SUNNY     -6 -11  79 CALM      30.42F
WASKISH        SUNNY     -4  -8  84 CALM      30.43F
CROOKSTON      SUNNY     -2  -8  78 S9        30.49F WCI -18
STEPHEN NDAWN    N/A      1  -6  71 S13         N/A  WCI -16
GREENBUSH NDAW   N/A      0  -6  78 S10         N/A  WCI -17
$$
  *****  WEATHER ACROSS CENTRAL AND WEST MINNESOTA  *****

CITY           SKY/WX    TMP DP  RH WIND       PRES   REMARKS
FOSSTON        SUNNY     -4  -9  77 CALM      30.44F
BEMIDJI        SUNNY     -5 -12  73 SW5       30.42F WCI -16
PARK RAPIDS    SUNNY     -1  -7  75 VRB3      30.42F
ELBOW LAKE     FAIR      -1  -6  80 E3        30.46F HAZE
WADENA         SUNNY      0  -6  78 S3        30.44F
DETROIT LAKES  SUNNY      0  -4  85 S3        30.44F
MOORHEAD       SUNNY     -2  -4  92 S5        30.48F WCI -12
FERGUS FALLS   SUNNY      0  -9  65 CALM      30.50F
MORRIS MN      SUNNY      0  -8  71 SE5       30.47F WCI -10
STAPLES        SUNNY     -2  -8  78 CALM      30.45F
$$
  *****  WEATHER ELSEWHERE ACROSS MINNESOTA  *****

CITY           SKY/WX    TMP DP  RH WIND       PRES   REMARKS
DULUTH         SUNNY      1  -8  66 NW8       30.39S WCI -13
INTRNTL FALLS  SUNNY     -2  -7  79 CALM      30.43F
ELY            SUNNY     -2  -9  71 NW6       30.39F WCI -14
CLOQUET        SUNNY      1  -8  66 NW8       30.42F WCI -12
WHEATON        SUNNY     -2  -8  78 E6        30.50F WCI -14
BRAINERD       SUNNY     -1  -7  75 CALM      30.46F
HIBBING        SUNNY      0  -8  69 NW7       30.42F WCI -13
ALEXANDRIA     SUNNY      0  -6  76 CALM      30.45F
SAINT CLOUD    SUNNY      3  -7  63 CALM      30.50F
MINNEAPOLIS    SUNNY      5  -4  66 N5        30.51F WCI  -4
$$

  *****  WEATHER ACROSS SOUTH DAKOTA  *****

CITY           SKY/WX    TMP DP  RH WIND       PRES   REMARKS
SIOUX FALLS    PTSUNNY    4  -7  60 SE6       30.47F WCI  -7
BROOKINGS      NOT AVBL
WATERTOWN      MOSUNNY    0  -8  69 S10       30.40S WCI -16
HURON          CLOUDY     5  -5  63 SE10      30.42F WCI -10
SISSETON         N/A     -1  -7  75 S10       30.45F WCI -17
ABERDEEN       SUNNY      2  -6  69 S12       30.42F WCI -15
MITCHELL       CLOUDY    10  -3  55 SE13      30.44F WCI  -5
PIERRE         CLOUDY    16  10  77 SE17      30.26F WCI   0
MOBRIDGE       CLOUDY    10   2  69 SE12      30.24F WCI  -5
RAPID CITY     CLOUDY    21  20  96 SE12      30.07F WCI   9
$$

  *****  SOME WEATHER IN NEARBY STATES *****

CITY           SKY/WX    TMP DP  RH WIND       PRES   REMARKS
GLASGOW MT     FRZ RAIN  25  21  85 E25       29.82F FOG     WCI   9
GREAT FALLS MT MOSUNNY   49  33  54 SW26G35   29.79R
CHEYENNE WY    PTSUNNY   50  17  27 W22G33    30.19R
SCOTTSBLUFF NE CLOUDY    24  22  91 S3        30.13F
OMAHA NE       CLOUDY    17   2  51 SE3       30.55F
DES MOINES IA  MOSUNNY    8  -3  61 NW7       30.55S WCI  -3
DAVENPORT IA   MOSUNNY   17  10  74 W16       30.44F WCI   2
CHICAGO IL     PTSUNNY   25  16  68 NW16      30.33R WCI  12
EAU CLAIRE WI  SUNNY      4  -4  69 W3        30.46F
LA CROSSE WI   SUNNY     10   0  63 NW12      30.49R WCI  -5
$$

  *****  SOME NATIONAL WEATHER *****

CITY           SKY/WX    TMP DP  RH WIND       PRES   REMARKS
LA GUARDIA NY  LGT RAIN  36  33  89 NW9       29.99F
RALEIGH NC     LGT RAIN  42  38  85 CALM      30.05S
ATLANTA GA     PTSUNNY   45  29  53 NW17      30.28S
NEW ORLEANS LA MOSUNNY   55  34  45 N16       30.44F
OKLAHOMA CITY  MOSUNNY   42  21  43 VRB6      30.53F
ALBUQUERQUE NM SUNNY     42  23  46 NW6       30.48F
SALT LAKE CITY CLOUDY    50  25  37 SE12      30.29R
LOS ANGELES CA PTSUNNY   76  22  13 VRB5      30.11S
BOISE ID       CLOUDY    51  36  56 SE12      30.13R
SEATTLE WA     PTSUNNY   58  50  75 S14G23    29.86S
$$

*** WEATHER ACROSS MANITOBA...SASKATCHEWAN AND ONTARIO ***
                ***ONTARIO***

CITY           SKY/WX    TMP DP  RH WIND       PRES   REMARKS
GERALDTON      MOSUNNY   -9 -17  70 W2        30.32F
THUNDER BAY    MOSUNNY    0  -9  65 NW14      30.44F WCI -19
SIOUX LOOKOUT  MOSUNNY   -6 -13  71 NW6       30.38F WCI -18
TORONTO        PTSUNNY   36  23  60 W6        30.05F
BIG TROUT LK   SUNNY    -11 -17  77 W9        30.26F WCI -29
PICKLE LAKE    MOSUNNY   -9 -18  64 W8        30.31S WCI -26
DRYDEN         SUNNY     -6 -11  77 W12       30.38F WCI -24
KENORA         SUNNY     -6 -11  77 SW8       30.38F WCI -21
$$
                *** MANITOBA***

CITY           SKY/WX    TMP DP  RH WIND       PRES   REMARKS
BRANDON        PTSUNNY   -2  -6  84 CALM      30.28F
DAUPHIN        CLOUDY     0  -6  78 E5        30.24F WCI -10
ISLAND LAKE    MOSUNNY   -8 -17  65 SW9       30.27S WCI -25
PILOT MOUND      N/A      1  -2  85 S10         N/A  WCI -14
THE PAS        FLURRIES  -2  -8  78 CALM      30.19S
THOMPSON       FLURRIES  -6 -11  77 W6        30.17S WCI -18
WINNIPEG       MOSUNNY   -2  -9  71 S14       30.41F WCI -21
LYNN LAKE      CLEAR     -6 -11  77 NW12G18   30.15S WCI -24
CHURCHILL      CRYSTALS  -8 -15  71 W16G23    30.07S WCI -30
GILLAM         CLOUDY    -8 -15  71 W9        30.13S WCI -25
$$
                ***SASKATCHEWAN***

CITY           SKY/WX    TMP DP  RH WIND       PRES   REMARKS
ESTEVAN        LGT SNOW  10   7  85 E14       30.08F FOG     WCI  -5
KINDERSLEY     LGT SNOW  19  16  86 E17       29.88F VSB 5/8 WCI   4
LLOYDMINSTER   LGT SNOW   9   5  85 NE21      30.02R DRFTSNOWWCI -11
PRINCE ALBERT  FLURRIES   5   0  78 CALM      30.15R
REGINA         FLURRIES   9   5  85 SE14      30.06F WCI  -8
YORKTON        CLOUDY     3   0  85 SE9       30.15F WCI -11
N. BATTLEFORD  LGT SNOW  10   9  92 E8        30.06F WCI  -1
LA RONGE       FLURRIES   1  -2  85 NW5       30.23R WCI  -8
SASKATOON      CLOUDY     7   3  85 NE13      30.08R WCI  -9
SWIFT CURRENT  LGT SNOW  21  19  93 SE17      29.80F VSB 3/4 WCI   7
$$
NOTE: THESE ARE AUTOMATED STATIONS WITH LIMITED QUALITY CONTROL
      "FAIR" INDICATES FEW OR NO CLOUDS BELOW 12,000 FEET WITH NO
      SIGNIFICANT WEATHER AND/OR OBSTRUCTIONS TO VISIBILITY.
      SKY/WX - SKY CONDITION AND SIGNIFICANT WEATHER.
      TMP - AIR TEMPERATURE.    DP   - DEWPOINT TEMPERATURE.
      RH  - RELATIVE HUMIDITY.  PRES - PRESSURE.
      HX  - HEAT INDEX.         WCI  - WIND CHILL INDEX.
$


USA.gov is the U.S. government's official web portal to all federal, state and local government web resources and services.